Regional Weather Roundup
Issued by NWS Jackson, KY

Home | Current Version | Previous Version | Text Only | Print | Product List | Glossary On
Versions: 1 2 3 4 5 6 7 8 9 10 11 12 13 14 15 16 17 18 19 20 21 22 23 24 25 26 27 28 29 30 31 32 33 34 35 36 37 38 39 40 41 42 43 44 45 46 47 48 49 50
000
ASUS43 KJKL 012319
RWRJKL

EAST KENTUCKY HOURLY WEATHER ROUNDUP
NATIONAL WEATHER SERVICE JACKSON KY
700 PM EDT MON SEP 01 2014

NOTE: "FAIR" INDICATES FEW OR NO CLOUDS BELOW 12,000 FEET WITH
NO SIGNIFICANT WEATHER AND/OR OBSTRUCTIONS TO VISIBILITY.

* THESE REPORTS ARE NOT UNDER NWS QUALITY CONTROL AND MAY NOT
  REPORT WEATHER SUCH AS PRECIPITATION AND FOG.

KYZ079-080-083-085-087-088-110-112-115-119-120-020000
...EASTERN KENTUCKY...

CITY           SKY/WX    TMP DP  RH WIND       PRES   REMARKS
JACKSON        MOSUNNY   83  68  60 CALM      30.03S
LONDON         MOSUNNY   86  65  49 SW7       30.03F
SOMERSET*      PTSUNNY   84  63  48 SW6       30.02S
MONTICELLO*    PTSUNNY   83  70  64 SW6       30.03F
WILLIAMSBURG*  SUNNY     84  68  58 CALM      30.04S
MIDDLESBORO*   SUNNY     84  69  61 S5        30.05S
HARLAN APT*    CLEAR     82  64  54 MISG      30.06S
HAZARD APT*    CLEAR     82  70  65 SW7       30.03S
BLACK MTN*       N/A     70  64  83 S3          N/A
PIKEVILLE APT* MOSUNNY   82  68  61 S3        30.04S
BIG SANDY*     MOCLDY    84  71  64 SW3       30.02S
MOREHEAD APT*  CLOUDY    79  73  83 S3        30.01S
ASHLAND*       SUNNY     75  68  78 CALM      29.97S
$$

KYZ035-036-041-042-044-050-067-078-099-020000
...CENTRAL KENTUCKY...

CITY           SKY/WX    TMP DP  RH WIND       PRES   REMARKS
MT STERLING*   SUNNY     81  72  74 CALM      30.00S
FLEMING/MASON* PTSUNNY   79  73  83 S5        29.99S
DANVILLE*      CLOUDY    77  73  88 CALM      30.01S
RICHMOND*      CLOUDY    82  68  61 SW6       29.99S
LEXINGTON      PTSUNNY   82  71  69 SW12      29.99S
FRANKFORT      CLOUDY    82  73  74 SW7       29.96S
$$

KYZ091>093-OHZ055-061-077-WVZ005-015-034-035-042-020000
...SOUTHERN OHIO/WEST VIRGINIA...

CITY           SKY/WX    TMP DP  RH WIND       PRES   REMARKS
COVINGTON      CLOUDY    82  72  71 SW7       29.94R
COLUMBUS       PTSUNNY   85  69  58 SW14      29.90S
DAYTON         LGT RAIN  82  71  69 SW13G22   29.92R
WILMINGTON     CLOUDY    80  70  71 SW13      29.93R
HUNTINGTON     PTSUNNY   74  71  91 CALM      29.99S
CHARLESTON     CLOUDY    74  71  91 S3        30.02F
BECKLEY        MOCLDY    78  64  61 SW5       30.12S
BLUEFIELD      CLEAR     80  62  54 W8        30.15F
$$

VAZ002-007-008-TNZ017-027-036-066-071-020000
...SOUTHWEST VIRGINIA/EAST TENNESSEE...

CITY           SKY/WX    TMP DP  RH WIND       PRES   REMARKS
WISE*          SUNNY     79  63  57 SW7       30.15S
JONESVILLE*      N/A     86  68  54 SW7       30.08F
ABINGDON*      SUNNY     84  67  56 W3        30.11F
BRISTOL        MOSUNNY   86  66  51 W6        30.07F
KNOXVILLE      MOSUNNY   86  69  56 SW13      30.03F HX  90
OAK RIDGE      SUNNY     88  70  55 VRB6      30.05F HX  93
CROSSVILLE     MOSUNNY   82  67  60 CALM      30.09F
NASHVILLE      PTSUNNY   89  66  46 SW10G25   29.99S HX  91
$$

...KEY TO REMARKS...
VSB - VISIBILITY IN MILES
WCI - WIND CHILL INDEX
HX  - HEAT INDEX

$$


USA.gov is the U.S. government's official web portal to all federal, state and local government web resources and services.